| time (UTC) | temp C | wind direction | speed KPH | gust KPH | rain 1hr cm | rain 24hr cm | rain mn cm | humidity % | barometer mb |
| 20260507172005 | 16 | 0.0 | 0.0 | 0.00 | 0.00 | 0.00 | 51 | 958.0 | |
| 20260507171805 | 16 | 0.0 | 0.0 | 0.00 | 0.00 | 0.00 | 50 | 958.1 | |
| 20260507171405 | 16 | 0.0 | 0.0 | 0.00 | 0.00 | 0.00 | 49 | 958.0 | |
| 20260507171006 | 17 | 0.0 | 0.0 | 0.00 | 0.00 | 0.00 | 48 | 958.0 | |
| 20260507170605 | 17 | 0.0 | 0.0 | 0.00 | 0.00 | 0.00 | 48 | 958.0 | |
| 20260507170405 | 17 | 0.0 | 0.0 | 0.00 | 0.00 | 0.00 | 47 | 958.0 | |
| 20260507170205 | 17 | 0.0 | 0.0 | 0.00 | 0.00 | 0.00 | 48 | 958.0 | |
| 20260507165805 | 17 | 0.0 | 0.0 | 0.00 | 0.00 | 0.00 | 49 | 958.0 | |
| 20260507165605 | 17 | 0.0 | 0.0 | 0.00 | 0.00 | 0.00 | 51 | 958.0 | |
| 20260507165205 | 16 | 0.0 | 0.0 | 0.00 | 0.00 | 0.00 | 51 | 958.0 | |
| 20260507165005 | 16 | 0.0 | 0.0 | 0.00 | 0.00 | 0.00 | 51 | 958.0 | |
| 20260507164605 | 16 | 0.0 | 0.0 | 0.00 | 0.00 | 0.00 | 51 | 958.0 | |
| 20260507164405 | 16 | 0.0 | 0.0 | 0.00 | 0.00 | 0.00 | 51 | 958.1 | |
| 20260507164205 | 16 | 0.0 | 0.0 | 0.00 | 0.00 | 0.00 | 52 | 958.0 | |
| 20260507164005 | 16 | 0.0 | 0.0 | 0.00 | 0.00 | 0.00 | 51 | 958.0 | |
| 20260507163805 | 16 | 0.0 | 0.0 | 0.00 | 0.00 | 0.00 | 51 | 958.1 | |
| 20260507162805 | 17 | 0.0 | 0.0 | 0.00 | 0.00 | 0.00 | 52 | 958.1 | |
| 20260507162405 | 17 | 0.0 | 0.0 | 0.00 | 0.00 | 0.00 | 52 | 958.1 | |
| 20260507162005 | 17 | 0.0 | 0.0 | 0.00 | 0.00 | 0.00 | 51 | 958.0 | |
| 20260507161605 | 17 | 0.0 | 0.0 | 0.00 | 0.00 | 0.00 | 52 | 958.0 | |
| 20260507161205 | 17 | 0.0 | 0.0 | 0.00 | 0.00 | 0.00 | 51 | 958.0 | |
| 20260507161005 | 18 | 0.0 | 0.0 | 0.00 | 0.00 | 0.00 | 53 | 958.0 | |
| 20260507160805 | 17 | 0.0 | 0.0 | 0.00 | 0.00 | 0.00 | 53 | 958.0 | |
| 20260507160405 | 17 | 0.0 | 0.0 | 0.00 | 0.00 | 0.00 | 52 | 958.1 | |
| 20260507160205 | 17 | 0.0 | 0.0 | 0.00 | 0.00 | 0.00 | 56 | 958.1 | |
| 20260507160005 | 17 | 0.0 | 0.0 | 0.00 | 0.00 | 0.00 | 57 | 958.1 | |
| 20260507155605 | 16 | 0.0 | 0.0 | 0.00 | 0.00 | 0.00 | 58 | 958.2 | |
| 20260507155005 | 16 | 0.0 | 0.0 | 0.00 | 0.00 | 0.00 | 58 | 958.0 | |
| 20260507154605 | 16 | 0.0 | 0.0 | 0.00 | 0.00 | 0.00 | 59 | 958.1 | |
| 20260507154405 | 16 | 0.0 | 0.0 | 0.00 | 0.00 | 0.00 | 59 | 958.1 | |
| 20260507153805 | 16 | 0.0 | 0.0 | 0.00 | 0.00 | 0.00 | 60 | 958.1 | |
| 20260507153605 | 15 | 0.0 | 0.0 | 0.00 | 0.00 | 0.00 | 59 | 958.1 | |
| 20260507153405 | 15 | 0.0 | 0.0 | 0.00 | 0.00 | 0.00 | 61 | 958.1 | |
| 20260507153205 | 15 | 0.0 | 0.0 | 0.00 | 0.00 | 0.00 | 59 | 958.0 | |
| 20260507153005 | 15 | 0.0 | 0.0 | 0.00 | 0.00 | 0.00 | 59 | 958.1 | |
| 20260507152805 | 16 | 0.0 | 0.0 | 0.00 | 0.00 | 0.00 | 59 | 958.1 | |
| 20260507152605 | 16 | 0.0 | 0.0 | 0.00 | 0.00 | 0.00 | 57 | 958.1 | |
| 20260507152205 | 16 | 0.0 | 0.0 | 0.00 | 0.00 | 0.00 | 57 | 958.0 | |
| 20260507152005 | 16 | 0.0 | 0.0 | 0.00 | 0.00 | 0.00 | 57 | 958.0 | |
| 20260507151805 | 16 | 0.0 | 0.0 | 0.00 | 0.00 | 0.00 | 56 | 958.0 | |
| 20260507151605 | 16 | 0.0 | 0.0 | 0.00 | 0.00 | 0.00 | 56 | 958.0 | |
| 20260507151405 | 16 | 0.0 | 0.0 | 0.00 | 0.00 | 0.00 | 55 | 957.9 | |
| 20260507151205 | 16 | 0.0 | 0.0 | 0.00 | 0.00 | 0.00 | 54 | 957.9 | |
| 20260507151005 | 16 | 0.0 | 0.0 | 0.00 | 0.00 | 0.00 | 54 | 958.0 | |
| 20260507150605 | 16 | 0.0 | 0.0 | 0.00 | 0.00 | 0.00 | 54 | 957.9 | |
| 20260507150205 | 16 | 0.0 | 0.0 | 0.00 | 0.00 | 0.00 | 53 | 957.9 | |
| 20260507150006 | 16 | 0.0 | 0.0 | 0.00 | 0.00 | 0.00 | 53 | 957.9 | |
| 20260507145805 | 16 | 0.0 | 0.0 | 0.00 | 0.00 | 0.00 | 54 | 957.9 | |
| 20260507145605 | 16 | 0.0 | 0.0 | 0.00 | 0.00 | 0.00 | 54 | 957.9 | |
| 20260507145405 | 16 | 0.0 | 0.0 | 0.00 | 0.00 | 0.00 | 54 | 957.9 | |
| 20260507145205 | 16 | 0.0 | 0.0 | 0.00 | 0.00 | 0.00 | 53 | 957.8 | |
| 20260507144805 | 16 | 0.0 | 0.0 | 0.00 | 0.00 | 0.00 | 52 | 957.8 | |
| 20260507144605 | 16 | 0.0 | 0.0 | 0.00 | 0.00 | 0.00 | 52 | 957.8 | |
| 20260507144405 | 17 | 0.0 | 0.0 | 0.00 | 0.00 | 0.00 | 52 | 957.8 | |
| 20260507144205 | 17 | 0.0 | 0.0 | 0.00 | 0.00 | 0.00 | 51 | 957.8 | |
| 20260507143805 | 17 | 0.0 | 0.0 | 0.00 | 0.00 | 0.00 | 51 | 957.8 | |
| 20260507143605 | 16 | 0.0 | 0.0 | 0.00 | 0.00 | 0.00 | 51 | 957.8 | |
| 20260507143405 | 16 | 0.0 | 0.0 | 0.00 | 0.00 | 0.00 | 51 | 957.8 | |
| 20260507143205 | 17 | 0.0 | 0.0 | 0.00 | 0.00 | 0.00 | 51 | 957.8 | |
| 20260507142605 | 17 | 0.0 | 0.0 | 0.00 | 0.00 | 0.00 | 50 | 957.7 | |
| 20260507142405 | 17 | 0.0 | 0.0 | 0.00 | 0.00 | 0.00 | 50 | 957.7 | |
| 20260507141805 | 17 | 0.0 | 0.0 | 0.00 | 0.00 | 0.00 | 50 | 957.7 | |
| 20260507140806 | 17 | 0.0 | 0.0 | 0.00 | 0.00 | 0.00 | 50 | 957.7 | |
| 20260507135805 | 17 | 0.0 | 0.0 | 0.00 | 0.00 | 0.00 | 52 | 957.8 | |
| 20260507135606 | 17 | 0.0 | 0.0 | 0.00 | 0.00 | 0.00 | 52 | 957.8 | |
| 20260507134605 | 17 | 0.0 | 0.0 | 0.00 | 0.00 | 0.00 | 50 | 957.7 | |
| 20260507133805 | 17 | 0.0 | 0.0 | 0.00 | 0.00 | 0.00 | 50 | 957.8 | |
| 20260507133405 | 17 | 0.0 | 0.0 | 0.00 | 0.00 | 0.00 | 49 | 957.8 | |
| 20260507133206 | 17 | 0.0 | 0.0 | 0.00 | 0.00 | 0.00 | 50 | 957.7 | |
| 20260507132605 | 17 | 0.0 | 0.0 | 0.00 | 0.00 | 0.00 | 49 | 957.7 | |
| 20260507131805 | 18 | 0.0 | 0.0 | 0.00 | 0.00 | 0.00 | 49 | 957.7 | |
| 20260507131406 | 18 | 0.0 | 0.0 | 0.00 | 0.00 | 0.00 | 49 | 957.7 | |
| 20260507131205 | 18 | 0.0 | 0.0 | 0.00 | 0.00 | 0.00 | 49 | 957.7 | |
| 20260507130605 | 17 | 0.0 | 0.0 | 0.00 | 0.00 | 0.00 | 49 | 957.6 | |
| 20260507130405 | 17 | 0.0 | 0.0 | 0.00 | 0.00 | 0.00 | 50 | 957.7 | |
| 20260507125805 | 17 | 0.0 | 0.0 | 0.00 | 0.00 | 0.00 | 50 | 957.8 | |
| 20260507124405 | 17 | 0.0 | 0.0 | 0.00 | 0.00 | 0.00 | 49 | 957.8 | |
| 20260507123406 | 17 | 0.0 | 0.0 | 0.00 | 0.00 | 0.00 | 50 | 957.7 | |
| 20260507122605 | 16 | 0.0 | 0.0 | 0.00 | 0.00 | 0.00 | 50 | 957.7 | |
| 20260507121805 | 17 | 0.0 | 0.0 | 0.00 | 0.00 | 0.00 | 51 | 957.6 | |
| 20260507121205 | 17 | 0.0 | 0.0 | 0.00 | 0.00 | 0.00 | 51 | 957.6 | |
| 20260507120806 | 17 | 0.0 | 0.0 | 0.00 | 0.00 | 0.00 | 51 | 957.7 | |
| 20260507120605 | 17 | 0.0 | 0.0 | 0.00 | 0.00 | 0.00 | 51 | 957.7 | |
| 20260507120405 | 17 | 0.0 | 0.0 | 0.00 | 0.00 | 0.00 | 50 | 957.6 | |
| 20260507120006 | 17 | 0.0 | 0.0 | 0.00 | 0.00 | 0.00 | 51 | 957.7 | |
| 20260507115405 | 17 | 0.0 | 0.0 | 0.00 | 0.00 | 0.00 | 50 | 957.7 | |
| 20260507114205 | 18 | 0.0 | 0.0 | 0.00 | 0.00 | 0.00 | 47 | 957.5 | |
| 20260507113405 | 18 | 0.0 | 0.0 | 0.00 | 0.00 | 0.00 | 46 | 957.5 | |
| 20260507112205 | 18 | 0.0 | 0.0 | 0.00 | 0.00 | 0.00 | 48 | 957.7 | |
| 20260507111805 | 17 | 0.0 | 0.0 | 0.00 | 0.00 | 0.00 | 48 | 957.7 | |
| 20260507111005 | 17 | 0.0 | 0.0 | 0.00 | 0.00 | 0.00 | 48 | 957.7 | |
| 20260507110605 | 17 | 0.0 | 0.0 | 0.00 | 0.00 | 0.00 | 48 | 957.7 | |
| 20260507105005 | 17 | 0.0 | 0.0 | 0.00 | 0.00 | 0.00 | 51 | 957.9 | |
| 20260507104805 | 16 | 0.0 | 0.0 | 0.00 | 0.00 | 0.00 | 50 | 958.0 | |
| 20260507104606 | 16 | 0.0 | 0.0 | 0.00 | 0.00 | 0.00 | 50 | 958.0 | |
| 20260507104205 | 16 | 0.0 | 0.0 | 0.00 | 0.00 | 0.00 | 50 | 957.9 | |
| 20260507104005 | 16 | 0.0 | 0.0 | 0.00 | 0.00 | 0.00 | 49 | 958.1 | |
| 20260507103006 | 16 | 0.0 | 0.0 | 0.00 | 0.00 | 0.00 | 54 | 958.2 | |
| 20260507102605 | 16 | 0.0 | 0.0 | 0.00 | 0.00 | 0.00 | 54 | 958.1 | |
| 20260507101605 | 16 | 0.0 | 0.0 | 0.00 | 0.00 | 0.00 | 54 | 958.2 | |
| 20260507101205 | 16 | 0.0 | 0.0 | 0.00 | 0.00 | 0.00 | 54 | 958.3 | |
| 20260507100805 | 16 | 0.0 | 0.0 | 0.00 | 0.00 | 0.00 | 54 | 958.4 | |
| 20260507100406 | 16 | 0.0 | 0.0 | 0.00 | 0.00 | 0.00 | 53 | 958.4 | |
| 20260507100206 | 16 | 0.0 | 0.0 | 0.00 | 0.00 | 0.00 | 54 | 958.3 | |
| 20260507100006 | 16 | 0.0 | 0.0 | 0.00 | 0.00 | 0.00 | 55 | 958.4 | |
| 20260507095406 | 16 | 0.0 | 0.0 | 0.00 | 0.00 | 0.00 | 53 | 958.4 | |
| 20260507095206 | 16 | 0.0 | 0.0 | 0.00 | 0.00 | 0.00 | 55 | 958.5 | |
| 20260507094806 | 16 | 0.0 | 0.0 | 0.00 | 0.00 | 0.00 | 56 | 958.5 | |
| 20260507094206 | 16 | 0.0 | 0.0 | 0.00 | 0.00 | 0.00 | 57 | 958.4 | |
| 20260507093806 | 16 | 0.0 | 0.0 | 0.00 | 0.00 | 0.00 | 58 | 958.5 | |
| 20260507093606 | 16 | 0.0 | 0.0 | 0.00 | 0.00 | 0.00 | 59 | 958.5 | |
| 20260507093206 | 16 | 0.0 | 0.0 | 0.00 | 0.00 | 0.00 | 59 | 958.5 | |
| 20260507093006 | 16 | 0.0 | 0.0 | 0.00 | 0.00 | 0.00 | 59 | 958.5 | |
| 20260507092806 | 16 | 0.0 | 0.0 | 0.00 | 0.00 | 0.00 | 59 | 958.5 | |
| 20260507092206 | 16 | 0.0 | 0.0 | 0.00 | 0.00 | 0.00 | 60 | 958.5 | |
| 20260507092006 | 15 | 0.0 | 0.0 | 0.00 | 0.00 | 0.00 | 59 | 958.4 | |
| 20260507091806 | 15 | 0.0 | 0.0 | 0.00 | 0.00 | 0.00 | 59 | 958.4 | |
| 20260507091606 | 15 | 0.0 | 0.0 | 0.00 | 0.00 | 0.00 | 60 | 958.4 | |
| 20260507091406 | 15 | 0.0 | 0.0 | 0.00 | 0.00 | 0.00 | 60 | 958.4 | |
| 20260507091206 | 15 | 0.0 | 0.0 | 0.00 | 0.00 | 0.00 | 60 | 958.3 | |
| 20260507090206 | 15 | 0.0 | 0.0 | 0.00 | 0.00 | 0.00 | 60 | 958.3 | |
| 20260507085806 | 15 | 0.0 | 0.0 | 0.00 | 0.00 | 0.00 | 60 | 958.3 | |
| 20260507085606 | 15 | 0.0 | 0.0 | 0.00 | 0.00 | 0.00 | 60 | 958.3 | |
| 20260507085406 | 15 | 0.0 | 0.0 | 0.00 | 0.00 | 0.00 | 59 | 958.3 | |
| 20260507085006 | 15 | 0.0 | 0.0 | 0.00 | 0.00 | 0.00 | 57 | 958.3 | |
| 20260507084606 | 15 | 0.0 | 0.0 | 0.00 | 0.00 | 0.00 | 58 | 958.3 | |
| 20260507084406 | 15 | 0.0 | 0.0 | 0.00 | 0.00 | 0.00 | 59 | 958.2 | |
| 20260507083806 | 15 | 0.0 | 0.0 | 0.00 | 0.00 | 0.00 | 59 | 958.2 | |
| 20260507083606 | 15 | 0.0 | 0.0 | 0.00 | 0.00 | 0.00 | 60 | 958.2 | |
| 20260507083406 | 15 | 0.0 | 0.0 | 0.00 | 0.00 | 0.00 | 60 | 958.2 | |
| 20260507083206 | 15 | 0.0 | 0.0 | 0.00 | 0.00 | 0.00 | 59 | 958.3 | |
| 20260507083006 | 15 | 0.0 | 0.0 | 0.00 | 0.00 | 0.00 | 60 | 958.3 | |
| 20260507082406 | 15 | 0.0 | 0.0 | 0.00 | 0.00 | 0.00 | 61 | 958.3 | |
| 20260507081806 | 15 | 0.0 | 0.0 | 0.00 | 0.00 | 0.00 | 60 | 958.3 | |
| 20260507081206 | 15 | 0.0 | 0.0 | 0.00 | 0.00 | 0.00 | 60 | 958.4 | |
| 20260507080606 | 15 | 0.0 | 0.0 | 0.00 | 0.00 | 0.00 | 62 | 958.3 | |
| 20260507080206 | 15 | 0.0 | 0.0 | 0.00 | 0.00 | 0.00 | 62 | 958.4 | |
| 20260507080006 | 15 | 0.0 | 0.0 | 0.00 | 0.00 | 0.00 | 62 | 958.3 | |
| 20260507075806 | 14 | 0.0 | 0.0 | 0.00 | 0.00 | 0.00 | 63 | 958.4 | |
| 20260507075606 | 14 | 0.0 | 0.0 | 0.00 | 0.00 | 0.00 | 64 | 958.4 | |
| 20260507074806 | 14 | 0.0 | 0.0 | 0.00 | 0.00 | 0.00 | 64 | 958.4 | |
| 20260507074606 | 14 | 0.0 | 0.0 | 0.00 | 0.00 | 0.00 | 65 | 958.3 | |
| 20260507074206 | 13 | 0.0 | 0.0 | 0.00 | 0.00 | 0.00 | 66 | 958.3 | |
| 20260507073406 | 13 | 0.0 | 0.0 | 0.00 | 0.00 | 0.00 | 67 | 958.3 | |
| 20260507073206 | 13 | 0.0 | 0.0 | 0.00 | 0.00 | 0.00 | 67 | 958.4 | |
| 20260507073006 | 13 | 0.0 | 0.0 | 0.00 | 0.00 | 0.00 | 68 | 958.3 | |
| 20260507072806 | 13 | 0.0 | 0.0 | 0.00 | 0.00 | 0.00 | 68 | 958.4 | |
| 20260507072606 | 13 | 0.0 | 0.0 | 0.00 | 0.00 | 0.00 | 69 | 958.4 | |
| 20260507072406 | 13 | 0.0 | 0.0 | 0.00 | 0.00 | 0.00 | 69 | 958.4 | |
| 20260507072206 | 13 | 0.0 | 0.0 | 0.00 | 0.00 | 0.00 | 69 | 958.4 | |
| 20260507071806 | 12 | 0.0 | 0.0 | 0.00 | 0.00 | 0.00 | 69 | 958.4 | |
| 20260507071606 | 12 | 0.0 | 0.0 | 0.00 | 0.00 | 0.00 | 69 | 958.4 | |
| 20260507071406 | 12 | 0.0 | 0.0 | 0.00 | 0.00 | 0.00 | 69 | 958.5 | |
| 20260507071006 | 12 | 0.0 | 0.0 | 0.00 | 0.00 | 0.00 | 69 | 958.5 | |
| 20260507070806 | 12 | 0.0 | 0.0 | 0.00 | 0.00 | 0.00 | 69 | 958.5 | |
| 20260507070606 | 12 | 0.0 | 0.0 | 0.00 | 0.00 | 0.00 | 69 | 958.5 | |
| 20260507070206 | 12 | 0.0 | 0.0 | 0.00 | 0.00 | 0.00 | 69 | 958.5 | |
| 20260507070010 | 12 | 0.0 | 0.0 | 0.00 | 0.00 | 0.00 | 69 | 958.4 | |
| 20260507065606 | 12 | 0.0 | 0.0 | 0.00 | 0.00 | 0.00 | 69 | 958.4 | |
| 20260507065206 | 12 | 0.0 | 0.0 | 0.00 | 0.00 | 0.00 | 70 | 958.4 | |
| 20260507065006 | 12 | 0.0 | 0.0 | 0.00 | 0.00 | 0.00 | 70 | 958.3 | |
| 20260507064806 | 12 | 0.0 | 0.0 | 0.00 | 0.00 | 0.00 | 70 | 958.3 | |
| 20260507064606 | 12 | 0.0 | 0.0 | 0.00 | 0.00 | 0.00 | 70 | 958.3 | |
| 20260507064206 | 12 | 0.0 | 0.0 | 0.00 | 0.00 | 0.00 | 70 | 958.2 | |
| 20260507064006 | 12 | 0.0 | 0.0 | 0.00 | 0.00 | 0.00 | 70 | 958.2 | |
| 20260507063806 | 12 | 0.0 | 0.0 | 0.00 | 0.00 | 0.00 | 70 | 958.2 | |
| 20260507063606 | 12 | 0.0 | 0.0 | 0.00 | 0.00 | 0.00 | 70 | 958.2 | |
| 20260507063406 | 12 | 0.0 | 0.0 | 0.00 | 0.00 | 0.00 | 70 | 958.1 | |
| 20260507063206 | 12 | 0.0 | 0.0 | 0.00 | 0.00 | 0.00 | 70 | 958.1 | |
| 20260507063006 | 12 | 0.0 | 0.0 | 0.00 | 0.00 | 0.00 | 70 | 958.1 | |
| 20260507062806 | 12 | 0.0 | 0.0 | 0.00 | 0.00 | 0.00 | 70 | 958.1 | |
| 20260507062406 | 12 | 0.0 | 0.0 | 0.00 | 0.00 | 0.00 | 70 | 958.1 | |
| 20260507062206 | 12 | 0.0 | 0.0 | 0.00 | 0.00 | 0.00 | 70 | 958.0 | |
| 20260507062006 | 12 | 0.0 | 0.0 | 0.00 | 0.00 | 0.00 | 71 | 958.0 | |
| 20260507061806 | 12 | 0.0 | 0.0 | 0.00 | 0.00 | 0.00 | 71 | 958.1 | |
| 20260507061406 | 12 | 0.0 | 0.0 | 0.00 | 0.00 | 0.00 | 71 | 958.0 | |
| 20260507061206 | 12 | 0.0 | 0.0 | 0.00 | 0.00 | 0.00 | 71 | 958.0 | |
| 20260507060806 | 12 | 0.0 | 0.0 | 0.00 | 0.00 | 0.00 | 71 | 957.9 | |
| 20260507060606 | 12 | 0.0 | 0.0 | 0.00 | 0.00 | 0.00 | 71 | 958.0 | |
| 20260507060406 | 12 | 0.0 | 0.0 | 0.00 | 0.00 | 0.00 | 71 | 958.0 | |
| 20260507060206 | 12 | 0.0 | 0.0 | 0.00 | 0.00 | 0.00 | 71 | 957.9 | |
| 20260507055806 | 12 | 0.0 | 0.0 | 0.00 | 0.00 | 0.00 | 71 | 958.0 | |
| 20260507055606 | 12 | 0.0 | 0.0 | 0.00 | 0.00 | 0.00 | 71 | 957.9 | |
| 20260507055406 | 12 | 0.0 | 0.0 | 0.00 | 0.00 | 0.00 | 71 | 957.9 | |
| 20260507055206 | 12 | 0.0 | 0.0 | 0.00 | 0.00 | 0.00 | 71 | 957.8 | |
| 20260507055006 | 12 | 0.0 | 0.0 | 0.00 | 0.00 | 0.00 | 72 | 957.9 | |
| 20260507054806 | 12 | 0.0 | 0.0 | 0.00 | 0.00 | 0.00 | 72 | 957.8 | |
| 20260507054606 | 12 | 0.0 | 0.0 | 0.00 | 0.00 | 0.00 | 72 | 957.9 | |
| 20260507054006 | 11 | 0.0 | 0.0 | 0.00 | 0.00 | 0.00 | 72 | 957.8 | |
| 20260507053806 | 11 | 0.0 | 0.0 | 0.00 | 0.00 | 0.00 | 72 | 957.7 | |
| 20260507053606 | 11 | 0.0 | 0.0 | 0.00 | 0.00 | 0.00 | 71 | 957.8 | |
| 20260507053406 | 12 | 0.0 | 0.0 | 0.00 | 0.00 | 0.00 | 71 | 957.8 | |
| 20260507053206 | 11 | 0.0 | 0.0 | 0.00 | 0.00 | 0.00 | 71 | 957.7 | |
| 20260507052806 | 11 | 0.0 | 0.0 | 0.00 | 0.00 | 0.00 | 71 | 957.6 | |
| 20260507052606 | 11 | 0.0 | 0.0 | 0.00 | 0.00 | 0.00 | 71 | 957.6 | |
| 20260507052406 | 11 | 0.0 | 0.0 | 0.00 | 0.00 | 0.00 | 71 | 957.6 | |
| 20260507052206 | 11 | 0.0 | 0.0 | 0.00 | 0.00 | 0.00 | 71 | 957.6 | |
| 20260507052006 | 11 | 0.0 | 0.0 | 0.00 | 0.00 | 0.00 | 71 | 957.6 | |
| 20260507051606 | 11 | 0.0 | 0.0 | 0.00 | 0.00 | 0.00 | 71 | 957.6 | |
| 20260507051406 | 11 | 0.0 | 0.0 | 0.00 | 0.00 | 0.00 | 71 | 957.6 | |
| 20260507051006 | 11 | 0.0 | 0.0 | 0.00 | 0.00 | 0.00 | 71 | 957.6 | |
| 20260507050806 | 11 | 0.0 | 0.0 | 0.00 | 0.00 | 0.00 | 71 | 957.5 | |
| 20260507050606 | 11 | 0.0 | 0.0 | 0.00 | 0.00 | 0.00 | 71 | 957.5 | |
| 20260507050406 | 11 | 0.0 | 0.0 | 0.00 | 0.00 | 0.00 | 72 | 957.4 | |
| 20260507050206 | 11 | 0.0 | 0.0 | 0.00 | 0.00 | 0.00 | 71 | 957.4 | |
| 20260507050006 | 11 | 0.0 | 0.0 | 0.00 | 0.00 | 0.00 | 71 | 957.3 | |
| 20260507045806 | 11 | 0.0 | 0.0 | 0.00 | 0.00 | 0.00 | 71 | 957.3 | |
| 20260507045606 | 11 | 0.0 | 0.0 | 0.00 | 0.00 | 0.00 | 71 | 957.3 | |
| 20260507045206 | 11 | 0.0 | 0.0 | 0.00 | 0.00 | 0.00 | 71 | 957.3 | |
| 20260507045006 | 11 | 0.0 | 0.0 | 0.00 | 0.00 | 0.00 | 72 | 957.3 | |
| 20260507044606 | 11 | 0.0 | 0.0 | 0.00 | 0.00 | 0.00 | 71 | 957.3 | |
| 20260507044406 | 11 | 0.0 | 0.0 | 0.00 | 0.00 | 0.00 | 71 | 957.3 | |
| 20260507044206 | 11 | 0.0 | 0.0 | 0.00 | 0.00 | 0.00 | 71 | 957.3 | |
| 20260507044006 | 11 | 0.0 | 0.0 | 0.00 | 0.00 | 0.00 | 71 | 957.2 | |
| 20260507043606 | 11 | 0.0 | 0.0 | 0.00 | 0.00 | 0.00 | 70 | 957.1 | |
| 20260507043406 | 12 | 0.0 | 0.0 | 0.00 | 0.00 | 0.00 | 70 | 957.1 | |
| 20260507043206 | 12 | 0.0 | 0.0 | 0.00 | 0.00 | 0.00 | 70 | 957.1 | |
| 20260507043006 | 12 | 0.0 | 0.0 | 0.00 | 0.00 | 0.00 | 70 | 957.0 | |
| 20260507042806 | 11 | 0.0 | 0.0 | 0.00 | 0.00 | 0.00 | 71 | 957.0 | |
| 20260507042606 | 11 | 0.0 | 0.0 | 0.00 | 0.00 | 0.00 | 71 | 957.0 | |
| 20260507042406 | 11 | 0.0 | 0.0 | 0.00 | 0.00 | 0.00 | 71 | 957.0 | |
| 20260507042206 | 11 | 0.0 | 0.0 | 0.00 | 0.00 | 0.00 | 70 | 957.0 | |
| 20260507042006 | 11 | 0.0 | 0.0 | 0.00 | 0.00 | 0.00 | 70 | 956.9 | |
| 20260507041606 | 11 | 0.0 | 0.0 | 0.00 | 0.00 | 0.00 | 70 | 956.9 | |
| 20260507041406 | 11 | 0.0 | 0.0 | 0.00 | 0.00 | 0.00 | 70 | 956.9 | |
| 20260507041206 | 11 | 0.0 | 0.0 | 0.00 | 0.00 | 0.00 | 70 | 956.9 | |
| 20260507040806 | 11 | 0.0 | 0.0 | 0.00 | 0.00 | 0.00 | 69 | 956.9 | |
| 20260507040606 | 11 | 0.0 | 0.0 | 0.00 | 0.00 | 0.00 | 70 | 956.9 | |
| 20260507040406 | 11 | 0.0 | 0.0 | 0.00 | 0.00 | 0.00 | 70 | 956.8 | |
| 20260507040206 | 11 | 0.0 | 0.0 | 0.00 | 0.00 | 0.00 | 70 | 956.8 | |
| 20260507040006 | 11 | 0.0 | 0.0 | 0.00 | 0.00 | 0.00 | 70 | 956.8 | |
| 20260507035806 | 11 | 0.0 | 0.0 | 0.00 | 0.00 | 0.00 | 70 | 956.9 | |
| 20260507035606 | 11 | 0.0 | 0.0 | 0.00 | 0.00 | 0.00 | 70 | 956.8 | |
| 20260507035406 | 11 | 0.0 | 0.0 | 0.00 | 0.00 | 0.00 | 70 | 956.9 | |
| 20260507035206 | 11 | 0.0 | 0.0 | 0.00 | 0.00 | 0.00 | 70 | 956.9 | |
| 20260507035006 | 11 | 0.0 | 0.0 | 0.00 | 0.00 | 0.00 | 71 | 956.9 | |
| 20260507034606 | 11 | 0.0 | 0.0 | 0.00 | 0.00 | 0.00 | 70 | 957.0 | |
| 20260507034406 | 11 | 0.0 | 0.0 | 0.00 | 0.00 | 0.00 | 70 | 956.9 | |
| 20260507034206 | 11 | 0.0 | 0.0 | 0.00 | 0.00 | 0.00 | 70 | 956.9 | |
| 20260507034006 | 11 | 0.0 | 0.0 | 0.00 | 0.00 | 0.00 | 70 | 956.9 | |
| 20260507033806 | 11 | 0.0 | 0.0 | 0.00 | 0.00 | 0.00 | 71 | 956.8 | |
| 20260507033406 | 11 | 0.0 | 0.0 | 0.00 | 0.00 | 0.00 | 71 | 956.8 | |
| 20260507033206 | 11 | 0.0 | 0.0 | 0.00 | 0.00 | 0.00 | 70 | 956.7 | |
| 20260507033006 | 11 | 0.0 | 0.0 | 0.00 | 0.00 | 0.00 | 70 | 956.7 | |
| 20260507032806 | 11 | 0.0 | 0.0 | 0.00 | 0.00 | 0.00 | 70 | 956.7 | |
| 20260507032406 | 12 | 0.0 | 0.0 | 0.00 | 0.00 | 0.00 | 70 | 956.6 | |
| 20260507032206 | 12 | 0.0 | 0.0 | 0.00 | 0.00 | 0.00 | 70 | 956.6 | |
| 20260507032006 | 12 | 0.0 | 0.0 | 0.00 | 0.00 | 0.00 | 70 | 956.5 | |
| 20260507031606 | 12 | 0.0 | 0.0 | 0.00 | 0.00 | 0.00 | 70 | 956.5 | |
| 20260507031406 | 12 | 0.0 | 0.0 | 0.00 | 0.00 | 0.00 | 71 | 956.5 | |
| 20260507031206 | 12 | 0.0 | 0.0 | 0.00 | 0.00 | 0.00 | 71 | 956.5 | |
| 20260507030806 | 12 | 0.0 | 0.0 | 0.00 | 0.00 | 0.00 | 71 | 956.5 | |
| 20260507030606 | 12 | 0.0 | 0.0 | 0.00 | 0.00 | 0.00 | 72 | 956.5 | |
| 20260507030406 | 12 | 0.0 | 0.0 | 0.00 | 0.00 | 0.00 | 71 | 956.6 | |
| 20260507030006 | 12 | 0.0 | 0.0 | 0.00 | 0.00 | 0.00 | 71 | 956.6 | |
| 20260507025806 | 12 | 0.0 | 0.0 | 0.00 | 0.00 | 0.00 | 71 | 956.5 | |
| 20260507025406 | 12 | 0.0 | 0.0 | 0.00 | 0.00 | 0.00 | 71 | 956.6 | |
| 20260507025206 | 12 | 0.0 | 0.0 | 0.00 | 0.00 | 0.00 | 71 | 956.5 | |
| 20260507025006 | 12 | 0.0 | 0.0 | 0.00 | 0.00 | 0.00 | 71 | 956.5 | |
| 20260507024606 | 12 | 0.0 | 0.0 | 0.00 | 0.00 | 0.00 | 71 | 956.5 | |
| 20260507024406 | 12 | 0.0 | 0.0 | 0.00 | 0.00 | 0.00 | 70 | 956.6 | |
| 20260507024206 | 12 | 0.0 | 0.0 | 0.00 | 0.00 | 0.00 | 71 | 956.5 | |
| 20260507024006 | 12 | 0.0 | 0.0 | 0.00 | 0.00 | 0.00 | 71 | 956.5 | |
| 20260507023806 | 11 | 0.0 | 0.0 | 0.00 | 0.00 | 0.00 | 71 | 956.6 | |
| 20260507023409 | 12 | 0.0 | 0.0 | 0.00 | 0.00 | 0.00 | 70 | 956.5 | |
| 20260507023206 | 12 | 0.0 | 0.0 | 0.00 | 0.00 | 0.00 | 70 | 956.5 | |
| 20260507023006 | 12 | 0.0 | 0.0 | 0.00 | 0.00 | 0.00 | 70 | 956.5 | |
| 20260507022806 | 12 | 0.0 | 0.0 | 0.00 | 0.00 | 0.00 | 69 | 956.5 | |
| 20260507022606 | 12 | 0.0 | 0.0 | 0.00 | 0.00 | 0.00 | 69 | 956.5 | |
| 20260507022406 | 12 | 0.0 | 0.0 | 0.00 | 0.00 | 0.00 | 69 | 956.4 | |
| 20260507022206 | 12 | 0.0 | 0.0 | 0.00 | 0.00 | 0.00 | 69 | 956.5 | |
| 20260507021806 | 12 | 0.0 | 0.0 | 0.00 | 0.00 | 0.00 | 69 | 956.5 | |
| 20260507021606 | 12 | 0.0 | 0.0 | 0.00 | 0.00 | 0.00 | 69 | 956.5 | |
| 20260507021206 | 12 | 0.0 | 0.0 | 0.00 | 0.00 | 0.00 | 69 | 956.3 | |
| 20260507021006 | 12 | 0.0 | 0.0 | 0.00 | 0.00 | 0.00 | 69 | 956.4 | |
| 20260507020806 | 12 | 0.0 | 0.0 | 0.00 | 0.00 | 0.00 | 69 | 956.4 | |
| 20260507020606 | 12 | 0.0 | 0.0 | 0.00 | 0.00 | 0.00 | 69 | 956.4 | |
| 20260507020206 | 12 | 0.0 | 0.0 | 0.00 | 0.00 | 0.00 | 69 | 956.4 | |
| 20260507020006 | 12 | 0.0 | 0.0 | 0.00 | 0.00 | 0.00 | 69 | 956.4 | |
| 20260507015806 | 12 | 0.0 | 0.0 | 0.00 | 0.00 | 0.00 | 69 | 956.4 | |
| 20260507015606 | 12 | 0.0 | 0.0 | 0.00 | 0.00 | 0.00 | 69 | 956.3 | |
| 20260507015406 | 12 | 0.0 | 0.0 | 0.00 | 0.00 | 0.00 | 69 | 956.4 | |
| 20260507015006 | 12 | 0.0 | 0.0 | 0.00 | 0.00 | 0.00 | 69 | 956.3 | |
| 20260507014606 | 12 | 0.0 | 0.0 | 0.00 | 0.00 | 0.00 | 69 | 956.3 | |
| 20260507014206 | 12 | 0.0 | 0.0 | 0.00 | 0.00 | 0.00 | 69 | 956.2 | |
| 20260507014006 | 12 | 0.0 | 0.0 | 0.00 | 0.00 | 0.00 | 69 | 956.2 | |
| 20260507013806 | 12 | 0.0 | 0.0 | 0.00 | 0.00 | 0.00 | 69 | 956.2 | |
| 20260507013606 | 12 | 0.0 | 0.0 | 0.00 | 0.00 | 0.00 | 69 | 956.2 | |
| 20260507013406 | 12 | 0.0 | 0.0 | 0.00 | 0.00 | 0.00 | 69 | 956.2 | |
| 20260507013206 | 12 | 0.0 | 0.0 | 0.00 | 0.00 | 0.00 | 70 | 956.2 | |
| 20260507012806 | 12 | 0.0 | 0.0 | 0.00 | 0.00 | 0.00 | 70 | 956.2 | |
| 20260507012606 | 12 | 0.0 | 0.0 | 0.00 | 0.00 | 0.00 | 70 | 956.2 | |
| 20260507012406 | 12 | 0.0 | 0.0 | 0.00 | 0.00 | 0.00 | 70 | 956.2 | |
| 20260507012006 | 12 | 0.0 | 0.0 | 0.00 | 0.00 | 0.00 | 70 | 956.1 | |
| 20260507011806 | 12 | 0.0 | 0.0 | 0.00 | 0.00 | 0.00 | 70 | 956.1 | |
| 20260507011606 | 12 | 0.0 | 0.0 | 0.00 | 0.00 | 0.00 | 70 | 956.1 | |
| 20260507011406 | 12 | 0.0 | 0.0 | 0.00 | 0.00 | 0.00 | 69 | 956.1 | |
| 20260507011206 | 12 | 0.0 | 0.0 | 0.00 | 0.00 | 0.00 | 69 | 956.0 | |
| 20260507011006 | 12 | 0.0 | 0.0 | 0.00 | 0.00 | 0.00 | 69 | 956.0 | |
| 20260507010806 | 12 | 0.0 | 0.0 | 0.00 | 0.00 | 0.00 | 70 | 956.0 | |
| 20260507010406 | 12 | 0.0 | 0.0 | 0.00 | 0.00 | 0.00 | 70 | 956.0 | |
| 20260507010006 | 12 | 0.0 | 0.0 | 0.00 | 0.00 | 0.00 | 70 | 955.9 | |
| 20260507005806 | 12 | 0.0 | 0.0 | 0.00 | 0.00 | 0.00 | 70 | 956.0 | |
| 20260507005606 | 12 | 0.0 | 0.0 | 0.00 | 0.00 | 0.00 | 70 | 956.0 | |
| 20260507005406 | 12 | 0.0 | 0.0 | 0.00 | 0.00 | 0.00 | 70 | 956.0 | |
| 20260507005006 | 12 | 0.0 | 0.0 | 0.00 | 0.00 | 0.00 | 70 | 956.0 | |
| 20260507004806 | 12 | 0.0 | 0.0 | 0.00 | 0.00 | 0.00 | 70 | 956.0 | |
| 20260507004406 | 12 | 0.0 | 0.0 | 0.00 | 0.00 | 0.00 | 70 | 956.0 | |
| 20260507004206 | 12 | 0.0 | 0.0 | 0.00 | 0.00 | 0.00 | 69 | 956.0 | |
| 20260507004006 | 12 | 0.0 | 0.0 | 0.00 | 0.00 | 0.00 | 69 | 956.0 | |
| 20260507003806 | 12 | 0.0 | 0.0 | 0.00 | 0.00 | 0.00 | 69 | 956.0 | |
| 20260507003606 | 12 | 0.0 | 0.0 | 0.00 | 0.00 | 0.00 | 69 | 956.0 | |
| 20260507003006 | 12 | 0.0 | 0.0 | 0.00 | 0.00 | 0.00 | 70 | 956.1 | |
| 20260507002806 | 12 | 0.0 | 0.0 | 0.00 | 0.00 | 0.00 | 70 | 956.1 | |
| 20260507002606 | 12 | 0.0 | 0.0 | 0.00 | 0.00 | 0.00 | 70 | 956.1 | |
| 20260507002406 | 12 | 0.0 | 0.0 | 0.00 | 0.00 | 0.00 | 70 | 956.0 | |
| 20260507002206 | 12 | 0.0 | 0.0 | 0.00 | 0.00 | 0.00 | 70 | 956.0 | |
| 20260507001806 | 12 | 0.0 | 0.0 | 0.00 | 0.00 | 0.00 | 70 | 955.8 | |
| 20260507001606 | 12 | 0.0 | 0.0 | 0.00 | 0.00 | 0.00 | 70 | 955.9 | |
| 20260507001406 | 12 | 0.0 | 0.0 | 0.00 | 0.00 | 0.00 | 70 | 955.9 | |
| 20260507001011 | 12 | 0.0 | 0.0 | 0.00 | 0.00 | 0.00 | 70 | 955.8 | |
| 20260507000406 | 12 | 0.0 | 0.0 | 0.00 | 0.00 | 0.00 | 70 | 955.8 | |
| 20260507000006 | 12 | 0.0 | 0.0 | 0.00 | 0.00 | 0.00 | 70 | 955.8 | |
| 20260506235806 | 12 | 0.0 | 0.0 | 0.00 | 0.00 | 0.00 | 70 | 955.8 | |
| 20260506235606 | 12 | 0.0 | 0.0 | 0.00 | 0.00 | 0.00 | 70 | 955.9 | |
| 20260506235406 | 12 | 0.0 | 0.0 | 0.00 | 0.00 | 0.00 | 70 | 955.9 | |
| 20260506235206 | 12 | 0.0 | 0.0 | 0.00 | 0.00 | 0.00 | 70 | 956.0 | |
| 20260506235006 | 12 | 0.0 | 0.0 | 0.00 | 0.00 | 0.00 | 71 | 955.9 | |
| 20260506234806 | 12 | 0.0 | 0.0 | 0.00 | 0.00 | 0.00 | 71 | 956.0 | |
| 20260506234406 | 12 | 0.0 | 0.0 | 0.00 | 0.00 | 0.00 | 70 | 955.9 | |
| 20260506234206 | 12 | 0.0 | 0.0 | 0.00 | 0.00 | 0.00 | 71 | 955.9 | |
| 20260506234006 | 12 | 0.0 | 0.0 | 0.00 | 0.00 | 0.00 | 70 | 955.9 | |
| 20260506233806 | 12 | 0.0 | 0.0 | 0.00 | 0.00 | 0.00 | 70 | 955.8 | |
| 20260506233606 | 12 | 0.0 | 0.0 | 0.00 | 0.00 | 0.00 | 70 | 955.9 | |
| 20260506233406 | 12 | 0.0 | 0.0 | 0.00 | 0.00 | 0.00 | 70 | 955.8 | |
| 20260506233006 | 12 | 0.0 | 0.0 | 0.00 | 0.00 | 0.00 | 70 | 955.8 | |
| 20260506232806 | 12 | 0.0 | 0.0 | 0.00 | 0.00 | 0.00 | 70 | 955.9 | |
| 20260506232606 | 12 | 0.0 | 0.0 | 0.00 | 0.00 | 0.00 | 70 | 955.8 | |
| 20260506232406 | 12 | 0.0 | 0.0 | 0.00 | 0.00 | 0.00 | 70 | 955.7 | |
| 20260506232206 | 12 | 0.0 | 0.0 | 0.00 | 0.00 | 0.00 | 70 | 955.8 | |
| 20260506232006 | 12 | 0.0 | 0.0 | 0.00 | 0.00 | 0.00 | 71 | 955.7 | |
| 20260506231806 | 12 | 0.0 | 0.0 | 0.00 | 0.00 | 0.00 | 71 | 955.8 | |
| 20260506231606 | 12 | 0.0 | 0.0 | 0.00 | 0.00 | 0.00 | 71 | 955.8 | |
| 20260506231206 | 12 | 0.0 | 0.0 | 0.00 | 0.00 | 0.00 | 71 | 955.9 | |
| 20260506231006 | 12 | 0.0 | 0.0 | 0.00 | 0.00 | 0.00 | 71 | 955.9 | |
| 20260506230806 | 12 | 0.0 | 0.0 | 0.00 | 0.00 | 0.00 | 70 | 955.9 | |
| 20260506230606 | 12 | 0.0 | 0.0 | 0.00 | 0.00 | 0.00 | 70 | 955.9 | |
| 20260506230206 | 12 | 0.0 | 0.0 | 0.00 | 0.00 | 0.00 | 68 | 955.8 | |
| 20260506230006 | 13 | 0.0 | 0.0 | 0.00 | 0.00 | 0.00 | 67 | 955.7 | |
| 20260506225806 | 13 | 0.0 | 0.0 | 0.00 | 0.00 | 0.00 | 67 | 955.7 | |
| 20260506225606 | 13 | 0.0 | 0.0 | 0.00 | 0.00 | 0.00 | 66 | 955.7 | |
| 20260506225406 | 13 | 0.0 | 0.0 | 0.00 | 0.00 | 0.00 | 67 | 955.7 | |
| 20260506225006 | 13 | 0.0 | 0.0 | 0.00 | 0.00 | 0.00 | 66 | 955.8 | |
| 20260506224806 | 13 | 0.0 | 0.0 | 0.00 | 0.00 | 0.00 | 66 | 955.9 | |
| 20260506224606 | 13 | 0.0 | 0.0 | 0.00 | 0.00 | 0.00 | 66 | 955.9 | |
| 20260506224206 | 13 | 0.0 | 0.0 | 0.00 | 0.00 | 0.00 | 66 | 955.8 | |
| 20260506224006 | 13 | 0.0 | 0.0 | 0.00 | 0.00 | 0.00 | 65 | 955.8 | |
| 20260506223806 | 13 | 0.0 | 0.0 | 0.00 | 0.00 | 0.00 | 65 | 955.7 | |
| 20260506223606 | 13 | 0.0 | 0.0 | 0.00 | 0.00 | 0.00 | 65 | 955.8 | |
| 20260506223406 | 13 | 0.0 | 0.0 | 0.00 | 0.00 | 0.00 | 65 | 955.7 | |
| 20260506223206 | 13 | 0.0 | 0.0 | 0.00 | 0.00 | 0.00 | 65 | 955.7 | |
| 20260506223006 | 13 | 0.0 | 0.0 | 0.00 | 0.00 | 0.00 | 65 | 955.7 | |
| 20260506222806 | 13 | 0.0 | 0.0 | 0.00 | 0.00 | 0.00 | 65 | 955.7 | |
| 20260506222606 | 13 | 0.0 | 0.0 | 0.00 | 0.00 | 0.00 | 64 | 955.7 | |
| 20260506222206 | 13 | 0.0 | 0.0 | 0.00 | 0.00 | 0.00 | 65 | 955.6 | |
| 20260506222006 | 13 | 0.0 | 0.0 | 0.00 | 0.00 | 0.00 | 64 | 955.6 | |
| 20260506221806 | 13 | 0.0 | 0.0 | 0.00 | 0.00 | 0.00 | 64 | 955.6 | |
| 20260506221606 | 13 | 0.0 | 0.0 | 0.00 | 0.00 | 0.00 | 63 | 955.6 | |
| 20260506221406 | 13 | 0.0 | 0.0 | 0.00 | 0.00 | 0.00 | 63 | 955.6 | |
| 20260506221206 | 13 | 0.0 | 0.0 | 0.00 | 0.00 | 0.00 | 63 | 955.7 | |
| 20260506221006 | 13 | 0.0 | 0.0 | 0.00 | 0.00 | 0.00 | 62 | 955.6 | |
| 20260506220806 | 13 | 0.0 | 0.0 | 0.00 | 0.00 | 0.00 | 62 | 955.5 | |
| 20260506220606 | 13 | 0.0 | 0.0 | 0.00 | 0.00 | 0.00 | 62 | 955.5 | |
| 20260506220406 | 13 | 0.0 | 0.0 | 0.00 | 0.00 | 0.00 | 62 | 955.5 | |
| 20260506220206 | 13 | 0.0 | 0.0 | 0.00 | 0.00 | 0.00 | 62 | 955.5 | |
| 20260506220006 | 13 | 0.0 | 0.0 | 0.00 | 0.00 | 0.00 | 62 | 955.5 | |
| 20260506215806 | 13 | 0.0 | 0.0 | 0.00 | 0.00 | 0.00 | 61 | 955.5 | |
| 20260506215606 | 13 | 0.0 | 0.0 | 0.00 | 0.00 | 0.00 | 61 | 955.5 | |
| 20260506215406 | 13 | 0.0 | 0.0 | 0.00 | 0.00 | 0.00 | 61 | 955.5 | |
| 20260506215206 | 13 | 0.0 | 0.0 | 0.00 | 0.00 | 0.00 | 61 | 955.6 | |
| 20260506215006 | 13 | 0.0 | 0.0 | 0.00 | 0.00 | 0.00 | 61 | 955.5 | |
| 20260506214806 | 13 | 0.0 | 0.0 | 0.00 | 0.00 | 0.00 | 61 | 955.5 | |
| 20260506214606 | 13 | 0.0 | 0.0 | 0.00 | 0.00 | 0.00 | 61 | 955.5 | |
| 20260506214406 | 13 | 0.0 | 0.0 | 0.00 | 0.00 | 0.00 | 61 | 955.5 | |
| 20260506213806 | 13 | 0.0 | 0.0 | 0.00 | 0.00 | 0.00 | 61 | 955.4 | |
| 20260506213605 | 13 | 0.0 | 0.0 | 0.00 | 0.00 | 0.00 | 60 | 955.4 | |
| 20260506213206 | 13 | 0.0 | 0.0 | 0.00 | 0.00 | 0.00 | 60 | 955.4 | |
| 20260506212806 | 13 | 0.0 | 0.0 | 0.00 | 0.00 | 0.00 | 60 | 955.3 | |
| 20260506212406 | 13 | 0.0 | 0.0 | 0.00 | 0.00 | 0.00 | 60 | 955.3 | |
| 20260506211606 | 13 | 0.0 | 0.0 | 0.00 | 0.00 | 0.00 | 60 | 955.3 | |
| 20260506211406 | 14 | 0.0 | 0.0 | 0.00 | 0.00 | 0.00 | 60 | 955.4 | |
| 20260506211206 | 14 | 0.0 | 0.0 | 0.00 | 0.00 | 0.00 | 60 | 955.3 | |
| 20260506211006 | 13 | 0.0 | 0.0 | 0.00 | 0.00 | 0.00 | 60 | 955.4 | |
| 20260506210806 | 13 | 0.0 | 0.0 | 0.00 | 0.00 | 0.00 | 60 | 955.3 | |
| 20260506210606 | 14 | 0.0 | 0.0 | 0.00 | 0.00 | 0.00 | 59 | 955.3 | |
| 20260506210406 | 14 | 0.0 | 0.0 | 0.00 | 0.00 | 0.00 | 59 | 955.3 | |
| 20260506210206 | 14 | 0.0 | 0.0 | 0.00 | 0.00 | 0.00 | 60 | 955.3 | |
| 20260506210006 | 14 | 0.0 | 0.0 | 0.00 | 0.00 | 0.00 | 60 | 955.3 | |
| 20260506205606 | 13 | 0.0 | 0.0 | 0.00 | 0.00 | 0.00 | 60 | 955.4 | |
| 20260506205406 | 13 | 0.0 | 0.0 | 0.00 | 0.00 | 0.00 | 60 | 955.3 | |
| 20260506205006 | 13 | 0.0 | 0.0 | 0.00 | 0.00 | 0.00 | 60 | 955.2 | |
| 20260506204606 | 13 | 0.0 | 0.0 | 0.00 | 0.00 | 0.00 | 60 | 955.3 | |
| 20260506204406 | 13 | 0.0 | 0.0 | 0.00 | 0.00 | 0.00 | 60 | 955.2 | |
| 20260506204206 | 13 | 0.0 | 0.0 | 0.00 | 0.00 | 0.00 | 60 | 955.2 | |
| 20260506204006 | 13 | 0.0 | 0.0 | 0.00 | 0.00 | 0.00 | 60 | 955.2 | |
| 20260506203806 | 13 | 0.0 | 0.0 | 0.00 | 0.00 | 0.00 | 60 | 955.2 | |
| 20260506203606 | 13 | 0.0 | 0.0 | 0.00 | 0.00 | 0.00 | 60 | 955.2 | |
| 20260506203206 | 13 | 0.0 | 0.0 | 0.00 | 0.00 | 0.00 | 60 | 955.2 | |
| 20260506203006 | 13 | 0.0 | 0.0 | 0.00 | 0.00 | 0.00 | 60 | 955.2 | |
| 20260506202806 | 13 | 0.0 | 0.0 | 0.00 | 0.00 | 0.00 | 59 | 955.2 | |
| 20260506202606 | 13 | 0.0 | 0.0 | 0.00 | 0.00 | 0.00 | 59 | 955.2 | |
| 20260506202406 | 13 | 0.0 | 0.0 | 0.00 | 0.00 | 0.00 | 59 | 955.2 | |
| 20260506202206 | 14 | 0.0 | 0.0 | 0.00 | 0.00 | 0.00 | 59 | 955.3 | |
| 20260506202006 | 14 | 0.0 | 0.0 | 0.00 | 0.00 | 0.00 | 59 | 955.3 | |
| 20260506201806 | 14 | 0.0 | 0.0 | 0.00 | 0.00 | 0.00 | 59 | 955.3 | |
| 20260506201406 | 14 | 0.0 | 0.0 | 0.00 | 0.00 | 0.00 | 59 | 955.2 | |
| 20260506201206 | 14 | 0.0 | 0.0 | 0.00 | 0.00 | 0.00 | 59 | 955.2 | |
| 20260506200606 | 14 | 0.0 | 0.0 | 0.00 | 0.00 | 0.00 | 59 | 955.0 | |
| 20260506200407 | 14 | 0.0 | 0.0 | 0.00 | 0.00 | 0.00 | 59 | 955.0 | |
| 20260506200205 | 14 | 0.0 | 0.0 | 0.00 | 0.00 | 0.00 | 59 | 955.0 | |
| 20260506200006 | 14 | 0.0 | 0.0 | 0.00 | 0.00 | 0.00 | 59 | 955.0 | |
| 20260506195806 | 14 | 0.0 | 0.0 | 0.00 | 0.00 | 0.00 | 59 | 955.0 | |
| 20260506195606 | 14 | 0.0 | 0.0 | 0.00 | 0.00 | 0.00 | 59 | 955.0 | |
| 20260506195406 | 14 | 0.0 | 0.0 | 0.00 | 0.00 | 0.00 | 59 | 954.9 | |
| 20260506195206 | 13 | 0.0 | 0.0 | 0.00 | 0.00 | 0.00 | 59 | 954.9 | |
| 20260506195006 | 13 | 0.0 | 0.0 | 0.00 | 0.00 | 0.00 | 59 | 954.9 | |
| 20260506194806 | 13 | 0.0 | 0.0 | 0.00 | 0.00 | 0.00 | 59 | 955.0 | |
| 20260506194406 | 13 | 0.0 | 0.0 | 0.00 | 0.00 | 0.00 | 59 | 954.9 | |
| 20260506194206 | 14 | 0.0 | 0.0 | 0.00 | 0.00 | 0.00 | 59 | 954.9 | |
| 20260506194005 | 14 | 0.0 | 0.0 | 0.00 | 0.00 | 0.00 | 59 | 954.9 | |
| 20260506193806 | 14 | 0.0 | 0.0 | 0.00 | 0.00 | 0.00 | 58 | 954.8 | |
| 20260506193606 | 14 | 0.0 | 0.0 | 0.00 | 0.00 | 0.00 | 59 | 954.8 | |
| 20260506193206 | 14 | 0.0 | 0.0 | 0.00 | 0.00 | 0.00 | 58 | 954.7 | |
| 20260506193006 | 14 | 0.0 | 0.0 | 0.00 | 0.00 | 0.00 | 58 | 954.6 | |
| 20260506192606 | 14 | 0.0 | 0.0 | 0.00 | 0.00 | 0.00 | 59 | 954.6 | |
| 20260506191606 | 14 | 0.0 | 0.0 | 0.00 | 0.00 | 0.00 | 58 | 954.5 | |
| 20260506191406 | 14 | 0.0 | 0.0 | 0.00 | 0.00 | 0.00 | 57 | 954.5 | |
| 20260506191206 | 14 | 0.0 | 0.0 | 0.00 | 0.00 | 0.00 | 58 | 954.5 | |
| 20260506191006 | 14 | 0.0 | 0.0 | 0.00 | 0.00 | 0.00 | 58 | 954.4 | |
| 20260506190805 | 14 | 0.0 | 0.0 | 0.00 | 0.00 | 0.00 | 58 | 954.4 | |
| 20260506190606 | 14 | 0.0 | 0.0 | 0.00 | 0.00 | 0.00 | 59 | 954.4 | |
| 20260506190206 | 14 | 0.0 | 0.0 | 0.00 | 0.00 | 0.00 | 57 | 954.4 | |
| 20260506190006 | 14 | 0.0 | 0.0 | 0.00 | 0.00 | 0.00 | 58 | 954.4 | |
| 20260506185805 | 14 | 0.0 | 0.0 | 0.00 | 0.00 | 0.00 | 57 | 954.3 | |
| 20260506185605 | 14 | 0.0 | 0.0 | 0.00 | 0.00 | 0.00 | 56 | 954.3 | |
| 20260506185406 | 14 | 0.0 | 0.0 | 0.00 | 0.00 | 0.00 | 56 | 954.2 | |
| 20260506185006 | 15 | 0.0 | 0.0 | 0.00 | 0.00 | 0.00 | 57 | 954.0 | |
| 20260506184806 | 15 | 0.0 | 0.0 | 0.00 | 0.00 | 0.00 | 56 | 954.1 | |
| 20260506184406 | 15 | 0.0 | 0.0 | 0.00 | 0.00 | 0.00 | 54 | 954.0 | |
| 20260506184205 | 15 | 0.0 | 0.0 | 0.00 | 0.00 | 0.00 | 54 | 954.0 | |
| 20260506184006 | 15 | 0.0 | 0.0 | 0.00 | 0.00 | 0.00 | 53 | 954.0 | |
| 20260506183806 | 15 | 0.0 | 0.0 | 0.00 | 0.00 | 0.00 | 53 | 954.0 | |
| 20260506183606 | 15 | 0.0 | 0.0 | 0.00 | 0.00 | 0.00 | 52 | 953.9 | |
| 20260506183406 | 15 | 0.0 | 0.0 | 0.00 | 0.00 | 0.00 | 52 | 953.8 | |
| 20260506183206 | 16 | 0.0 | 0.0 | 0.00 | 0.00 | 0.00 | 51 | 953.7 | |
| 20260506182806 | 16 | 0.0 | 0.0 | 0.00 | 0.00 | 0.00 | 50 | 953.7 | |
| 20260506182406 | 16 | 0.0 | 0.0 | 0.00 | 0.00 | 0.00 | 50 | 953.6 | |
| 20260506182206 | 17 | 0.0 | 0.0 | 0.00 | 0.00 | 0.00 | 48 | 953.6 | |
| 20260506182005 | 17 | 0.0 | 0.0 | 0.00 | 0.00 | 0.00 | 48 | 953.6 | |
| 20260506181806 | 17 | 0.0 | 0.0 | 0.00 | 0.00 | 0.00 | 46 | 953.5 | |
| 20260506181406 | 18 | 0.0 | 0.0 | 0.00 | 0.00 | 0.00 | 44 | 953.4 | |
| 20260506181006 | 20 | 0.0 | 0.0 | 0.00 | 0.00 | 0.00 | 43 | 953.5 | |
| 20260506180806 | 21 | 0.0 | 0.0 | 0.00 | 0.00 | 0.00 | 42 | 953.4 | |
| 20260506180606 | 22 | 0.0 | 0.0 | 0.00 | 0.00 | 0.00 | 40 | 953.5 | |
| 20260506180406 | 23 | 0.0 | 0.0 | 0.00 | 0.00 | 0.00 | 40 | 953.7 | |
| 20260506180206 | 23 | 0.0 | 0.0 | 0.00 | 0.00 | 0.00 | 39 | 953.7 | |
| 20260506175806 | 23 | 0.0 | 0.0 | 0.00 | 0.00 | 0.00 | 39 | 953.6 | |
| 20260506175606 | 23 | 0.0 | 0.0 | 0.00 | 0.00 | 0.00 | 41 | 953.5 | |
| 20260506175206 | 22 | 0.0 | 0.0 | 0.00 | 0.00 | 0.00 | 40 | 953.6 | |
| 20260506175006 | 22 | 0.0 | 0.0 | 0.00 | 0.00 | 0.00 | 42 | 953.6 | |
| 20260506174806 | 22 | 0.0 | 0.0 | 0.00 | 0.00 | 0.00 | 42 | 953.6 | |
| 20260506174605 | 22 | 0.0 | 0.0 | 0.00 | 0.00 | 0.00 | 43 | 953.6 | |
| 20260506174206 | 22 | 0.0 | 0.0 | 0.00 | 0.00 | 0.00 | 44 | 953.5 | |
| 20260506174006 | 21 | 0.0 | 0.0 | 0.00 | 0.00 | 0.00 | 45 | 953.5 | |
| 20260506173805 | 21 | 0.0 | 0.0 | 0.00 | 0.00 | 0.00 | 47 | 953.5 | |
| 20260506173206 | 17 | 0.0 | 0.0 | 0.00 | 0.00 | 0.00 | 52 | 953.6 | |
| 20260506172806 | 16 | 0.0 | 0.0 | 0.00 | 0.00 | 0.00 | 53 | 953.3 | |
| 20260506172606 | 16 | 0.0 | 0.0 | 0.00 | 0.00 | 0.00 | 52 | 953.2 |